IW2LAO-13 Weather Reports


time (UTC)temp
C
wind
direction
speed
KPH
gust
KPH
rain 1hr
cm
rain 24hr
cm
rain mn
cm
humidity
%
barometer
mb
20260507020257 11 60 4.8 11.3 0.00 2.03 0.05 87 1010.8
20260507015257 11 46 6.4 14.5 0.00 2.03 0.05 88 1010.8
20260507014259 11 58 4.8 8.0 0.00 2.03 0.05 88 1010.8
20260507013257 11 5 8.0 16.1 0.03 2.03 0.05 88 1010.6
20260507011333 11 101 4.8 6.4 0.05 2.03 0.05 88 1010.5
20260507005257 11 53 4.8 14.5 0.05 2.03 0.05 89 1010.6
20260507003255 11 51 4.8 12.9 0.03 2.03 0.03 87 1010.9
20260507001254 11 26 3.2 8.0 0.00 2.01 0.00 86 1010.8
20260507000255 11 33 9.7 17.7 0.00 2.01 0.00 85 1010.8
20260506235255 11 89 8.0 16.1 0.00 2.01 0.00 85 1010.7
20260506234255 11 101 11.3 17.7 0.00 2.01 0.00 86 1010.8
20260506233254 11 71 6.4 14.5 0.00 2.03 0.00 87 1010.8
20260506232254 11 53 6.4 16.1 0.00 2.03 0.00 87 1010.8
20260506231304 11 70 6.4 12.9 0.00 2.08 0.00 87 1010.9
20260506230307 11 87 4.8 11.3 0.00 2.08 0.00 88 1010.8
20260506225255 11 50 3.2 8.0 0.00 2.11 0.00 88 1010.9
20260506224255 11 26 8.0 17.7 0.00 2.13 0.00 85 1011.0
20260506223252 11 88 9.7 19.3 0.00 2.21 0.00 85 1010.9
20260506222252 11 98 6.4 16.1 0.00 2.21 0.00 85 1011.0
20260506220253 11 67 1.6 4.8 0.00 2.21 0.00 86 1011.1
20260506215255 11 80 3.2 4.8 0.00 2.21 2.21 85 1010.9
20260506214252 11 73 3.2 6.4 0.00 2.21 2.21 85 1010.8
20260506213251 11 71 6.4 11.3 0.00 2.21 2.21 86 1010.9
20260506212251 11 91 4.8 9.7 0.00 2.21 2.21 86 1010.9
20260506210252 11 72 4.8 14.5 0.00 2.21 2.21 84 1010.9
20260506205251 11 61 11.3 19.3 0.00 2.21 2.21 83 1010.8
20260506204252 11 107 9.7 19.3 0.00 2.21 2.21 84 1010.7
20260506202251 11 152 11.3 16.1 0.00 2.21 2.21 86 1010.7
20260506201247 11 148 8.0 20.9 0.00 2.21 2.21 86 1010.8
20260506200247 11 141 4.8 12.9 0.00 2.21 2.21 88 1010.6
20260506195247 11 76 4.8 11.3 0.05 2.21 2.21 88 1010.5
20260506194247 12 47 6.4 19.3 0.08 2.21 2.21 88 1010.5
20260506192247 12 85 6.4 12.9 0.20 2.21 2.21 93 1010.5
20260506191247 13 105 3.2 6.4 0.23 2.21 2.21 94 1010.3
20260506190247 12 30 1.6 6.4 0.25 2.21 2.18 93 1010.2
20260506185247 13 288 1.6 4.8 0.25 2.16 2.16 93 1010.3
20260506184246 13 259 1.6 4.8 0.23 2.11 2.11 93 1010.0
20260506183250 13 265 3.2 6.4 0.23 2.03 2.03 92 1009.8
20260506182245 13 124 4.8 12.9 0.30 2.01 1.98 92 1009.4
20260506181245 13 227 3.2 11.3 0.25 1.96 1.96 92 1009.4
20260506175246 13 61 3.2 11.3 0.20 1.91 1.91 91 1007.9
20260506174245 13 78 4.8 11.3 0.38 1.91 1.91 90 1007.8
20260506173245 13 96 4.8 14.5 0.30 1.80 1.78 88 1007.6
20260506172244 14 87 8.0 12.9 0.20 1.70 1.70 86 1007.6
20260506171244 14 94 8.0 17.7 0.20 1.70 1.70 87 1007.2
20260506170245 14 86 3.2 6.4 0.20 1.73 1.70 88 1006.9
20260506165242 15 51 4.8 11.3 0.20 1.73 1.68 85 1006.8
20260506164242 16 82 4.8 11.3 0.03 1.55 1.52 78 1006.5
20260506163244 16 69 4.8 12.9 0.00 1.55 1.50 74 1006.3
20260506160242 17 11 4.8 12.9 0.00 1.60 1.50 70 1006.4
20260506154240 17 71 4.8 11.3 0.00 1.65 1.50 70 1006.3
20260506153239 18 100 6.4 17.7 0.00 1.65 1.50 70 1006.4
20260506151244 17 91 6.4 16.1 0.00 1.65 1.50 70 1006.6
20260506150239 18 94 6.4 12.9 0.00 1.65 1.50 70 1006.7
20260506145233 18 44 6.4 12.9 0.00 1.65 1.50 69 1006.9
20260506144233 18 75 4.8 11.3 0.00 1.65 1.50 71 1007.0
20260506143234 17 355 6.4 16.1 0.00 1.65 1.50 72 1007.2
20260506142232 17 55 4.8 12.9 0.00 1.65 1.50 74 1007.5
20260506141232 16 5 6.4 14.5 0.00 1.65 1.50 76 1007.7
20260506140232 16 76 4.8 12.9 0.00 1.65 1.50 82 1007.9
20260506135234 15 53 6.4 14.5 0.00 1.65 1.50 81 1008.0
20260506133230 15 69 4.8 11.3 0.00 1.65 1.50 81 1008.1
20260506132230 15 53 4.8 14.5 0.00 1.65 1.50 85 1008.1
20260506131230 15 350 8.0 20.9 0.00 1.65 1.50 85 1008.1
20260506130230 15 36 11.3 22.5 0.00 1.65 1.50 85 1008.2
20260506125230 15 52 6.4 16.1 0.00 1.65 1.50 85 1008.4
20260506124229 14 64 4.8 12.9 0.00 1.65 1.50 89 1008.6
20260506123230 13 15 4.8 9.7 0.03 1.65 1.50 91 1008.9
20260506122228 13 90 3.2 9.7 0.05 1.65 1.50 92 1008.9
20260506121228 13 44 3.2 6.4 0.18 1.65 1.50 92 1008.9
20260506120229 13 12 1.6 4.8 0.28 1.65 1.50 93 1008.9
20260506115232 12 117 3.2 6.4 0.28 1.65 1.50 93 1009.0
20260506114228 12 220 1.6 4.8 0.28 1.65 1.50 93 1009.1
20260506113228 12 264 1.6 4.8 0.28 1.63 1.47 93 1009.1
20260506112229 12 240 4.8 8.0 0.33 1.60 1.45 93 1009.0
20260506111230 13 244 6.4 16.1 0.23 1.45 1.30 92 1008.9
20260506110229 13 257 3.2 14.5 0.15 1.37 1.22 92 1008.9
20260506105228 13 191 1.6 3.2 0.18 1.37 1.22 92 1008.9
20260506104228 13 317 1.6 3.2 0.18 1.37 1.22 92 1008.8
20260506103228 13 295 1.6 9.7 0.15 1.35 1.19 92 1008.8
20260506102228 13 233 6.4 14.5 0.08 1.27 1.12 92 1009.0
20260506100235 14 291 1.6 6.4 0.03 1.22 1.07 88 1008.5
20260506094227 14 81 4.8 9.7 0.00 1.24 1.04 87 1008.3
20260506092225 13 19 3.2 6.4 0.00 1.27 1.04 89 1008.5
20260506090226 13 5 3.2 6.4 0.00 1.30 1.04 92 1008.9
20260506085225 13 45 1.6 4.8 0.00 1.30 1.04 90 1008.8
20260506084224 13 102 4.8 9.7 0.05 1.30 1.04 89 1008.7
20260506083223 13 96 4.8 11.3 0.08 1.30 1.04 91 1008.7
20260506082224 13 86 4.8 12.9 0.13 1.30 1.04 92 1008.9
20260506081223 13 31 3.2 8.0 0.15 1.30 1.04 93 1008.9
20260506080223 12 9 4.8 8.0 0.20 1.30 1.04 93 1008.8
20260506073220 12 88 6.4 12.9 0.25 1.22 0.97 94 1009.1
20260506072220 12 94 4.8 11.3 0.30 1.17 0.91 94 1009.3
20260506071220 12 57 4.8 11.3 0.36 1.17 0.89 95 1009.4
20260506070219 12 68 3.2 6.4 0.36 1.09 0.84 95 1009.3
20260506062217 12 148 1.6 4.8 0.20 0.86 0.61 95 1009.6
20260506061218 12 128 1.6 3.2 0.20 0.79 0.51 95 1009.6
20260506060217 12 18 1.6 4.8 0.18 0.74 0.48 95 1009.6
20260506051214 12 63 3.2 9.7 0.15 0.61 0.33 96 1009.4
20260506050212 12 138 3.2 4.8 0.10 0.56 0.30 96 1009.6
20260506044211 12 274 0.0 1.6 0.03 0.48 0.23 95 1009.5
20260506042212 12 259 1.6 6.4 0.00 0.46 0.20 95 1009.1
20260506041213 12 134 4.8 11.3 0.00 0.46 0.20 95 1008.9
20260506040211 12 124 4.8 9.7 0.00 0.46 0.20 95 1008.8
20260506035213 12 110 4.8 11.3 0.00 0.46 0.20 96 1008.8
20260506034212 12 111 3.2 8.0 0.00 0.46 0.20 96 1008.7
20260506033211 12 109 3.2 6.4 0.00 0.46 0.20 96 1008.9
20260506032212 12 132 1.6 3.2 0.00 0.46 0.20 96 1009.4
20260506030210 12 140 1.6 4.8 0.00 0.46 0.20 96 1009.7
20260506025210 12 148 1.6 6.4 0.00 0.46 0.20 96 1009.7
20260506022209 12 175 0.0 0.0 0.00 0.46 0.20 96 1010.2
20260506021210 12 175 0.0 0.0 0.00 0.46 0.20 96 1010.2